This demonstration page uses our WeatherBlox Daily Observations layout. Learn more.

Left ArrowRight Arrow

41.12389, -100.76542

Hourly Observations for January 25, 2022

Temp ( °F °C ) Dew Point ( °F °C ) Humidity (%) Winds ( mph kmh ) Pressure ( in mb ) Visibility ( mi km ) Precip ( " mm )
12:41 am 00:41 Cloudy with Light Snow 26 -3.3 21 -6.1 81 81 E 6 9 30.25 1024 8 13 0.00 0.00
12:53 am 00:53 Cloudy with Light Snow 26 -3.3 21 -6.1 81 81 ENE 6 9 30.16 1021 9 14 0.00 0.00
1:24 am 01:24 Cloudy with Light Snow 25 -3.9 20 -6.7 81 81 E 6 9 30.26 1025 3 4 0.01 0.25
1:51 am 01:51 Cloudy with Light Snow 25 -4 19 -7 80 80 E 7 11 30.27 1025 2 3 0.03 0.76
1:53 am 01:53 Cloudy with Light Snow 24 -4.4 20 -6.7 84 84 E 7 11 30.17 1022 2 3 0.03 0.76
2:15 am 02:15 Cloudy with Light Snow 24 -4.4 21 -6.1 88 88 E 5 7 30.27 1025 2 3 0.01 0.25
2:35 am 02:35 Cloudy with Light Snow 24 -4.4 21 -6.1 88 88 ESE 7 11 30.27 1025 3 4 0.02 0.51
2:50 am 02:50 Cloudy with Light Snow 25 -4 19 -7 80 80 ESE 9 15 30.26 1025 3 5 0.03 0.76
2:53 am 02:53 Cloudy with Light Snow 24 -4.4 20 -6.7 84 84 ESE 8 13 30.17 1022 3 4 0.03 0.76
3:14 am 03:14 Cloudy with Light Snow 23 -5 20 -6.7 88 88 ESE 6 9 30.28 1025 4 6 0.01 0.25
3:53 am 03:53 Cloudy with Light Snow 22 -5.6 19 -7.2 89 89 E 9 15 30.19 1022 4 6 0.01 0.25
4:01 am 04:01 Cloudy with Light Snow 21 -6.1 18 -7.8 88 88 E 10 17 30.31 1026 3 4 0.00 0.00
4:31 am 04:31 Cloudy with Light Snow 21 -6.1 17 -8.3 85 85 ESE 10 17 30.31 1026 3 5 0.01 0.25
4:40 am 04:40 Cloudy with Light Snow 20 -6.7 17 -8.3 89 89 ESE 10 17 30.31 1027 4 6 0.02 0.51
4:53 am 04:53 Cloudy with Light Snow 20 -6.7 16 -8.9 85 85 ESE 10 17 30.21 1023 6 10 0.02 0.51
5:31 am 05:31 Cloudy with Light Snow 20 -6.7 16 -8.9 85 85 SE 8 13 30.32 1027 3 4 0.00 0.00
5:45 am 05:45 Cloudy with Light Snow 20 -6.7 16 -8.9 85 85 ESE 7 11 30.33 1027 5 8 0.01 0.25
5:53 am 05:53 Cloudy with Light Snow 20 -6.7 16 -8.9 85 85 E 8 13 30.23 1024 6 10 0.01 0.25
6:00 am 06:00 Cloudy with Light Snow 20 -6.7 16 -8.9 85 85 E 9 15 30.33 1027 8 13 0.00 0.00
6:53 am 06:53 Cloudy 19 -7.2 15 -9.4 84 84 E 9 15 30.26 1025 10 16 0.00 0.00
7:19 am 07:19 Cloudy 18 -7.8 14 -10 84 84 ESE 12 19 30.38 1029 10 16 0.00 0.00
7:53 am 07:53 Cloudy 18 -7.8 14 -10 84 84 ESE 8 13 30.29 1026 10 16 0.00 0.00
8:53 am 08:53 Cloudy 20 -6.7 16 -8.9 85 85 SE 6 9 30.30 1026 10 16 0.00 0.00
9:53 am 09:53 Cloudy with Light Snow 21 -6.1 16 -8.9 81 81 SE 3 6 30.34 1027 9 14 0.00 0.00
10:10 am 10:10 Cloudy with Light Snow 21 -6.1 17 -8.3 85 85 SSE 6 9 30.43 1030 3 4 0.00 0.00
10:24 am 10:24 Cloudy with Light Snow 21 -6.1 17 -8.3 85 85 S 6 9 30.44 1031 4 6 0.01 0.25
10:53 am 10:53 Cloudy 22 -5.6 16 -8.9 78 78 S 10 17 30.36 1028 10 16 0.01 0.25
11:53 am 11:53 Cloudy 23 -5 17 -8.3 78 78 ESE 5 7 30.38 1029 10 16 0.00 0.00
12:25 pm 12:25 Cloudy 22 -5.6 17 -8.3 82 82 E 9 15 30.46 1032 10 16 0.00 0.00
12:53 pm 12:53 Cloudy 22 -5.6 17 -8.3 82 82 E 10 17 30.39 1029 10 16 0.00 0.00
1:53 pm 13:53 Cloudy 22 -5.6 18 -7.8 85 85 E 9 15 30.39 1029 10 16 0.00 0.00
2:35 pm 14:35 Cloudy 23 -5 18 -7.8 81 81 E 8 13 30.45 1031 10 16 0.00 0.00
2:53 pm 14:53 Cloudy 22 -5.6 18 -7.8 85 85 E 6 9 30.41 1030 10 16 0.00 0.00
3:02 pm 15:02 Cloudy 22 -5.6 18 -7.8 85 85 E 7 11 30.47 1032 10 16 0.00 0.00
3:29 pm 15:29 Cloudy 23 -5 18 -7.8 81 81 ENE 6 9 30.48 1032 10 16 0.00 0.00
3:53 pm 15:53 Cloudy 23 -5 18 -7.8 81 81 ENE 6 9 30.43 1031 10 16 0.00 0.00
4:53 pm 16:53 Cloudy 22 -5.6 19 -7.2 89 89 ESE 6 9 30.45 1031 10 16 0.00 0.00
5:53 pm 17:53 Cloudy 22 -5.6 19 -7.2 89 89 SSE 3 6 30.46 1032 10 16 0.00 0.00
6:53 pm 18:53 Cloudy 22 -5.6 19 -7.2 89 89 Calm 30.48 1032 10 16 0.00 0.00
7:53 pm 19:53 Cloudy 22 -5.6 19 -7.2 89 89 Calm 30.50 1033 10 16 0.00 0.00
8:53 pm 20:53 Cloudy 22 -5.6 19 -7.2 89 89 Calm 30.49 1033 10 16 0.00 0.00
9:53 pm 21:53 Cloudy 22 -5.6 18 -7.8 85 85 SE 3 6 30.47 1032 10 16 0.00 0.00
10:05 pm 22:05 Partly Cloudy 18 -7.8 16 -8.9 92 92 SE 5 7 30.56 1035 10 16 0.00 0.00
10:43 pm 22:43 Partly Cloudy 19 -7.2 16 -8.9 88 88 S 8 13 30.53 1034 9 14 0.00 0.00
10:53 pm 22:53 Mostly Cloudy 19 -7.2 16 -8.9 88 88 S 7 11 30.46 1031 8 13 0.00 0.00
11:36 pm 23:36 Cloudy 21 -6.1 18 -7.8 88 88 S 9 15 30.51 1033 10 16 0.00 0.00
11:53 pm 23:53 Cloudy 21 -6.1 18 -7.8 88 88 S 10 17 30.44 1031 10 16 0.00 0.00

Powered by AerisWeather